Colby, KS

9:43 AM CDT on May 25, 2017 (GMT -0500)
Shaltz

Weather History for KCBK - November, 2013

Change the Weather History Date:

Thursday, November 14, 2013

  Actual Average (KGLD) Record (KGLD)
Temperature  
Mean Temperature 45 °F -  
Max Temperature 57 °F 51 °F 75 °F (1975)
Min Temperature 33 °F 25 °F -4 °F (1940)
Degree Days  
Heating Degree Days 20    
Moisture  
Dew Point 37 °F    
Average Humidity 74    
Maximum Humidity 100    
Minimum Humidity 54    
Precipitation  
Precipitation 0.00 in - - ()
Sea Level Pressure  
Sea Level Pressure 29.95 in    
Wind  
Wind Speed 12 mph (NNW)    
Max Wind Speed 26 mph    
Max Gust Speed 34 mph    
Visibility 10 miles    
Events      
Averages and records for this station are not official NWS values.
T = Trace of Precipitation, MM = Missing Value Source: NWS Daily Summary

Daily Weather History Graph

Daily Weather History Graph

Search for Another Location

Airport or City:

Trip Planner

Search our weather history database for the weather conditions in past years. The results will help you decide how hot, cold, wet, or windy it might be!

Date:

Astronomy

Nov. 14, 2013 Rise Set
Actual Time 7:27 AM CST 5:29 PM CST
Civil Twilight 6:58 AM CST 5:58 PM CST
Nautical Twilight 6:26 AM CST 6:30 PM CST
Astronomical Twilight 5:54 AM CST 7:02 PM CST
Moon 3:51 PM CST (11/14) 4:25 AM CST (11/14)
Length of Visible Light 10h 59m
Length of Day
10h 02m
Waxing Gibbous, 92% of the Moon is Illuminated
Nov 14
Waxing Gibbous
Nov 17
Full
Nov 25
Last Quarter
Dec 2
New
Dec 9
First Quarter

Hourly Weather History & Observations

Time (CST) Temp. Windchill Dew Point Humidity Pressure Visibility Wind Dir Wind Speed Gust Speed Precip Events Conditions
12:15 AM 37.4 °F 32.1 °F 35.6 °F 93% 29.94 in 10.0 mi SSW 6.9 mph - N/A   Clear
12:35 AM 37.4 °F 32.1 °F 35.6 °F 93% 29.93 in 10.0 mi SSW 6.9 mph - N/A   Clear
12:55 AM 37.4 °F 32.1 °F 35.6 °F 93% 29.93 in 10.0 mi SSW 6.9 mph - N/A   Clear
1:15 AM 35.6 °F 30.7 °F 33.8 °F 93% 29.92 in 10.0 mi SW 5.8 mph - N/A   Clear
1:35 AM 33.8 °F 27.0 °F 33.8 °F 100% 29.92 in 10.0 mi WSW 8.1 mph - N/A   Clear
1:55 AM 33.8 °F 25.3 °F 33.8 °F 100% 29.91 in 10.0 mi West 11.5 mph - N/A   Clear
2:15 AM 33.8 °F 27.0 °F 33.8 °F 100% 29.91 in 10.0 mi WSW 8.1 mph - N/A   Clear
2:35 AM 33.8 °F 27.0 °F 33.8 °F 100% 29.91 in 10.0 mi SSW 8.1 mph - N/A   Clear
2:55 AM 33.8 °F 27.0 °F 33.8 °F 100% 29.91 in 10.0 mi SW 8.1 mph - N/A   Clear
3:15 AM 33.8 °F 27.0 °F 33.8 °F 100% 29.90 in 10.0 mi SW 8.1 mph - N/A   Clear
3:35 AM 33.8 °F 28.6 °F 33.8 °F 100% 29.89 in 10.0 mi SW 5.8 mph - N/A   Clear
3:55 AM 33.8 °F 27.7 °F 33.8 °F 100% 29.89 in 10.0 mi WSW 6.9 mph - N/A   Clear
4:15 AM 33.8 °F 30.8 °F 33.8 °F 100% 29.89 in 10.0 mi WSW 3.5 mph - N/A   Clear
4:35 AM 41.0 °F 34.3 °F 32.0 °F 70% 29.90 in 10.0 mi NW 11.5 mph - N/A   Clear
4:55 AM 42.8 °F 35.4 °F 32.0 °F 66% 29.90 in 10.0 mi NW 15.0 mph - N/A   Clear
5:15 AM 44.6 °F 38.4 °F 32.0 °F 61% 29.90 in 10.0 mi NNW 12.7 mph - N/A   Clear
5:35 AM 44.6 °F 38.8 °F 32.0 °F 61% 29.90 in 10.0 mi NNW 11.5 mph - N/A   Clear
5:55 AM 46.4 °F 40.1 °F 33.8 °F 62% 29.91 in 10.0 mi NNW 15.0 mph - N/A   Clear
6:15 AM 46.4 °F 40.4 °F 33.8 °F 62% 29.91 in 10.0 mi NNW 13.8 mph 17.3 mph N/A   Clear
6:35 AM 46.4 °F 40.4 °F 33.8 °F 62% 29.92 in 10.0 mi NNW 13.8 mph - N/A   Clear
6:55 AM 46.4 °F 40.1 °F 33.8 °F 62% 29.93 in 10.0 mi NNW 15.0 mph - N/A   Clear
7:15 AM 46.4 °F 39.5 °F 33.8 °F 62% 29.94 in 10.0 mi NNW 17.3 mph - N/A   Clear
7:35 AM 44.6 °F 37.2 °F 35.6 °F 71% 29.95 in 10.0 mi NNW 17.3 mph - N/A   Clear
7:55 AM 44.6 °F 36.4 °F 33.8 °F 66% 29.96 in 10.0 mi NNW 20.7 mph 27.6 mph N/A   Clear
8:15 AM 44.6 °F 36.1 °F 35.6 °F 71% 29.97 in 10.0 mi North 21.9 mph 27.6 mph N/A   Clear
8:35 AM 44.6 °F 35.9 °F 35.6 °F 71% 29.98 in 10.0 mi North 23.0 mph 27.6 mph N/A   Clear
8:55 AM 46.4 °F 38.7 °F 35.6 °F 66% 29.99 in 10.0 mi North 20.7 mph 29.9 mph N/A   Clear
9:15 AM 50.0 °F - 37.4 °F 62% 30.00 in 10.0 mi North 26.5 mph 34.5 mph N/A   Clear
9:35 AM 48.2 °F - 37.4 °F 66% 30.01 in 10.0 mi North 24.2 mph 32.2 mph N/A   Clear
9:55 AM 50.0 °F - 39.2 °F 66% 30.02 in 10.0 mi North 23.0 mph 33.4 mph N/A   Clear
10:15 AM 51.8 °F - 41.0 °F 67% 30.02 in 10.0 mi North 25.3 mph 33.4 mph N/A   Clear
10:35 AM 51.8 °F - 41.0 °F 67% 30.02 in 10.0 mi North 25.3 mph 32.2 mph N/A   Clear
10:55 AM 51.8 °F - 41.0 °F 67% 30.02 in 10.0 mi North 21.9 mph 33.4 mph N/A   Clear
11:15 AM 53.6 °F - 42.8 °F 67% 30.02 in 10.0 mi North 24.2 mph 31.1 mph N/A   Scattered Clouds
11:35 AM 53.6 °F - 42.8 °F 67% 30.02 in 10.0 mi North 24.2 mph 31.1 mph N/A   Scattered Clouds
11:55 AM 53.6 °F - 42.8 °F 67% 30.01 in 10.0 mi NNE 19.6 mph 27.6 mph N/A   Scattered Clouds
12:15 PM 53.6 °F - 41.0 °F 62% 30.00 in 10.0 mi NNE 21.9 mph 26.5 mph N/A   Clear
12:35 PM 53.6 °F - 41.0 °F 62% 29.99 in 10.0 mi North 17.3 mph - N/A   Clear
12:55 PM 55.4 °F - 41.0 °F 58% 29.98 in 10.0 mi NNE 18.4 mph 24.2 mph N/A   Clear
1:15 PM 55.4 °F - 41.0 °F 58% 29.98 in 10.0 mi NNE 13.8 mph 25.3 mph N/A   Clear
1:35 PM 57.2 °F - 41.0 °F 55% 29.97 in 10.0 mi NNE 18.4 mph - N/A   Clear
1:55 PM 57.2 °F - 41.0 °F 55% 29.96 in 10.0 mi NNE 12.7 mph 20.7 mph N/A   Clear
2:15 PM 57.2 °F - 41.0 °F 55% 29.95 in 10.0 mi NE 11.5 mph 17.3 mph N/A   Scattered Clouds
2:35 PM 55.4 °F - 39.2 °F 54% 29.95 in 10.0 mi NNE 10.4 mph - N/A   Scattered Clouds